Location: Unspecified
(48.8582°N, 2.2947°E)
Time: 11:53:04
(UTC+02:00)

ISS - Pass Details

Date: 02 April 2019
Orbit: 408 x 410 km, 51.6° (Epoch: 24 April)

Event Time Altitude Azimuth Distance (km) Brightness Sun altitude
Rises 22:30:27 0° 290° (WNW) 2,340 1.5 -20.2°
Reaches altitude 10° 22:32:34 10° 285° (WNW) 1,476 0.0 -20.5°
Enters shadow 22:35:23 47° 237° (WSW) 554 -3.1 -20.9°
